Tracking 31027 objects as of 19-Jul-2025
HD Live streaming from Space Station
objects crossing your sky now

FENGYUN 1C DEB

Track FENGYUN 1C DEB now!
10-day predictions


NORAD ID: 31926
Int'l Code: 1999-025CMD
Perigee: 776.6 km
Apogee: 830.4 km
Inclination: 99.0 °
Period: 100.8 minutes
Semi major axis: 7174 km
RCS: 0.0122 m2 (small)
Launch date: May 10, 1999
Source: People's Republic of China (PRC)
Launch site: Taiyaun Space Center, China (TSC)

Note: This is SATELLITE DEBRIS
Your satellite tracking list
Your tracking list is empty




NASA's NSSDC Master Catalog

Two Line Element Set (TLE):
1 31926U 99025CMD 25199.72481979  .00002848  00000-0  11440-2 0  9993
2 31926  98.9591 290.8423 0037434 324.5140  35.3551 14.28615906932088
Source of the keplerian elements: AFSPC